[[{"header":{"parameterUnit":"m.s-1","parameterCategory":1,"la1":30.2991,"la2":30.254,"lo1":-89.0895,"lo2":-89.0444,"dy":0.0017,"dx":0.0017,"nx":28,"ny":28,"refTime":"2024-04-22T09:00:00:Z","depth":0,"parameterNumber":2,"parameterNumberName":"U-component_of_WINDS"},"data":[0,0,0,0,0,0,0,0,0,0,0,0,0,0,0,0,0,0,0,0,0,0,0,0,0,0,0,0,0,0,0,0,0,0,0,0,0,0,0,0,0,0,0,0,0,0,0,0,0,0,0,0,0,0,0,0,0,0,-3.655,-3.655,0,-3.6561,-3.6561,-3.6561,-3.6495,-3.6493,-3.6491,-3.6489,-3.65,-3.6502,-3.6504,0,0,0,0,0,0,0,0,0,0,0,0,0,-3.6472,-3.6474,-3.655,-3.655,-3.655,-3.6561,-3.6561,-3.6561,-3.6495,-3.6493,-3.6491,-3.6488,-3.6499,-3.6502,-3.6504,0,0,0,0,0,0,0,0,0,0,0,0,0,-3.6497,-3.6474,-3.655,-3.6519,-3.6516,-3.6561,-3.6561,-3.6561,-3.6496,-3.6493,-3.649,-3.6487,-3.6499,-3.6502,-3.6505,-3.658,0,0,-3.6514,-3.6515,0,0,0,0,0,0,0,0,-3.6495,-3.65,-3.6523,-3.6521,-3.6518,-3.6524,-3.6537,-3.6567,-3.6496,-3.6503,-3.6489,-3.6486,-3.651,-3.6512,-3.652,-3.658,-3.6581,-3.6514,-3.6516,-3.6517,-3.6518,0,0,0,0,0,0,0,-3.6494,-3.6499,-3.6554,-3.6524,-3.652,-3.6504,-3.6504,-3.6543,-3.6522,-3.6503,-3.6498,-3.65,-3.6508,-3.6517,-3.652,-3.6581,-3.6514,-3.6517,-3.6519,-3.652,-3.6703,-3.6706,0,0,0,0,0,0,-3.6496,-3.6498,-3.6554,-3.6554,-3.6499,-3.6508,-3.6508,-3.6525,-3.6522,-3.6519,-3.6502,-3.6497,-3.6514,-3.6517,-3.652,-3.6609,-3.6517,-3.652,-3.6522,-3.67,-3.6704,-3.6707,0,0,0,0,0,0,-3.6495,-3.6502,-3.6553,-3.6525,-3.653,-3.6512,-3.6531,-3.6526,-3.6536,-3.6522,-3.6518,-3.6516,-3.6512,-3.6516,-3.6566,-3.6608,-3.6522,-3.6524,-3.6697,-3.6702,-3.6706,-3.6786,0,0,0,0,0,0,-3.6493,-3.6502,-3.653,-3.6526,-3.6532,-3.6599,-3.6534,-3.6529,-3.6541,-3.6534,-3.6533,-3.653,-3.651,-3.6561,-3.6569,-3.6611,-3.6527,-3.6693,-3.6699,-3.6704,-3.678,-3.6793,-3.6804,0,0,0,0,0,-3.649,-3.6552,-3.6532,-3.6539,-3.6567,-3.6602,-3.6605,-3.658,-3.6545,-3.6573,-3.6564,-3.653,-3.6602,-3.6567,-3.6575,-3.6618,-3.669,-3.6697,-3.6704,-3.6774,-3.679,-3.6804,0,0,0,0,0,0,-3.6562,-3.6551,-3.6529,-3.6591,-3.6598,-3.659,-3.6626,-3.6598,-3.6615,-3.6608,-3.6576,-3.6576,-3.6631,-3.6629,-3.6591,-3.6691,-3.664,-3.6649,-3.6691,-3.6706,-3.6718,-3.6718,-3.6529,0,0,0,0,0,-3.6585,-3.6614,-3.6603,-3.6659,-3.6663,-3.6644,-3.6658,-3.6638,-3.6644,-3.6647,-3.6641,-3.6648,-3.6672,-3.6688,-3.671,-3.6778,-3.6778,-3.6812,-3.6824,-3.6835,-3.6843,-3.688,-3.6895,-3.673,-3.673,-3.673,0,0,-3.6633,-3.6631,-3.6651,-3.6673,-3.6676,-3.6707,-3.6647,-3.6682,-3.6705,-3.6652,-3.6699,-3.6695,-3.67,-3.676,-3.6786,-3.676,-3.6888,-3.6843,-3.6852,-3.6854,-3.6888,-3.6904,-3.6918,-3.6735,-3.6734,-3.6733,0,0,-3.6736,-3.6737,-3.6784,-3.6789,-3.6794,-3.6781,-3.6792,-3.6789,-3.6785,-3.6831,-3.6792,-3.6818,-3.686,-3.6866,-3.6874,-3.698,-3.695,-3.6987,-3.7052,-3.7089,-3.7102,-3.7113,-3.7152,-3.7166,-3.6995,-3.6996,-3.6996,0,-3.6795,-3.6841,-3.6812,-3.685,-3.6861,-3.6815,-3.6863,-3.6868,-3.688,-3.6889,-3.6859,-3.6911,-3.6911,-3.6972,-3.6998,-3.7006,-3.7018,-3.6988,-3.7102,-3.7113,-3.7123,-3.716,-3.7175,-3.7,-3.7,-3.6999,-3.6999,0,-3.6913,-3.6945,-3.6983,-3.6996,-3.7011,-3.7054,-3.7032,-3.7051,-3.7029,-3.7019,-3.7067,-3.7066,-3.7087,-3.7099,-3.7079,-3.7157,-3.7141,-3.7107,-3.7056,-3.7144,-3.7178,-3.7192,-3.7007,-3.7005,-3.7004,-3.7003,0,0,-3.7063,-3.706,-3.7074,-3.708,-3.7082,-3.7106,-3.7147,-3.7167,-3.7184,-3.7193,-3.7227,-3.7264,-3.7232,-3.7242,-3.7221,-3.7253,-3.7338,-3.7215,-3.7215,-3.7239,-3.7426,-3.7452,-3.7469,-3.7317,-3.732,-3.7322,-3.7426,0,-3.7165,-3.7235,-3.7211,-3.7281,-3.7311,-3.7267,-3.7302,-3.7307,-3.7299,-3.7322,-3.7312,-3.7339,-3.7296,-3.7301,-3.733,-3.7322,-3.7375,-3.7314,-3.7349,-3.7351,-3.7351,-3.7486,-3.7514,-3.7613,-3.7439,-3.7441,-3.7442,0,-3.7294,-3.7309,-3.7384,-3.7381,-3.7392,-3.7425,-3.7441,-3.7464,-3.7469,-3.7461,-3.7472,-3.7444,-3.7484,-3.7431,-3.7485,-3.7444,-3.7457,-3.7454,-3.7458,-3.7461,-3.7403,-3.7495,-3.7643,-3.7659,-3.7463,-3.7461,-3.746,0,-3.7398,-3.7436,-3.7486,-3.7492,-3.749,-3.7514,-3.7514,-3.7516,-3.753,-3.7544,-3.7553,-3.7572,-3.7582,-3.7597,-3.7576,-3.7539,-3.7634,-3.7579,-3.7628,-3.7629,-3.7651,-3.7651,-3.7805,-3.7658,-3.7657,-3.7657,-3.7657,0,-3.7515,-3.7563,-3.7533,-3.7563,-3.7615,-3.7586,-3.7638,-3.7633,-3.7636,-3.7665,-3.7627,-3.7655,-3.7624,-3.7649,-3.7632,-3.768,-3.7685,-3.768,-3.7675,-3.7684,-3.7685,-3.7693,-3.7686,-3.7661,-3.766,-3.7659,-3.7659,0,-3.764,-3.7622,-3.7673,-3.7667,-3.7667,-3.7705,-3.77,-3.7728,-3.7716,-3.7754,-3.7761,-3.7743,-3.777,-3.775,-3.7777,-3.7766,-3.7829,-3.7814,-3.7828,-3.7825,-3.7876,-3.7872,-3.8042,-3.8063,-3.7901,-3.7902,-3.7904,0,-3.7717,-3.7753,-3.7751,-3.7767,-3.777,-3.7798,-3.7812,-3.7784,-3.78,-3.7809,-3.7836,-3.786,-3.7878,-3.7924,-3.7914,-3.7934,-3.792,-3.7978,-3.7923,-3.7931,-3.7923,-3.7921,-3.7925,-3.799,-3.7992,-3.7994,-3.7995,0,-3.7856,-3.7845,-3.7867,-3.7886,-3.7904,-3.7917,-3.7928,-3.7944,-3.7916,-3.7936,-3.7964,-3.7978,-3.8005,-3.803,-3.8047,-3.8047,-3.8017,-3.8012,-3.8025,-3.8035,-3.8042,-3.804,-3.786,-3.8009,-3.8007,-3.8006,-3.8006,-3.8005,-3.7961,-3.799,-3.7994,-3.8019,-3.8024,-3.8035,-3.8061,-3.8053,-3.8076,-3.8096,-3.8078,-3.8112,-3.8116,-3.8135,-3.8139,-3.8165,-3.8141,-3.8159,-3.8164,-3.8169,-3.8177,-3.8037,-3.8167,-3.8167,-3.8166,-3.8166,-3.8166,0,-3.8099,-3.8099,-3.8122,-3.8138,-3.8158,-3.8128,-3.8138,-3.8157,-3.8187,-3.8193,-3.8211,-3.8244,-3.8267,-3.8259,-3.828,-3.8302,-3.8289,-3.8309,-3.8307,-3.8308,-3.8196,-3.8184,-3.8319,-3.8319,-3.8319,-3.8319,-3.8319,-3.8319,-3.8173,-3.8222,-3.8212,-3.8263,-3.8262,-3.8295,-3.8304,-3.8313,-3.8318,-3.8356,-3.8375,-3.8369,-3.8369,-3.839,-3.8411,-3.8407,-3.8417,-3.8443,-3.8435,-3.8331,-3.8316,-3.8301,-3.829,-3.8445,-3.8445,-3.8544,-3.8545,-3.8546]},{"header":{"parameterUnit":"m.s-1","parameterCategory":1,"la1":30.2991,"la2":30.254,"lo1":-89.0895,"lo2":-89.0444,"dy":0.0017,"dx":0.0017,"nx":28,"ny":28,"refTime":"2024-04-22T09:00:00:Z","depth":0,"parameterNumber":3,"parameterNumberName":"V-component_of_WINDS"},"data":[0,0,0,0,0,0,0,0,0,0,0,0,0,0,0,0,0,0,0,0,0,0,0,0,0,0,0,0,0,0,0,0,0,0,0,0,0,0,0,0,0,0,0,0,0,0,0,0,0,0,0,0,0,0,0,0,0,0,-5.9213,-5.9214,0,-5.924,-5.9241,-5.9241,-5.9177,-5.9174,-5.9172,-5.9171,-5.9195,-5.9197,-5.92,0,0,0,0,0,0,0,0,0,0,0,0,0,-5.9102,-5.9105,-5.9213,-5.9214,-5.9214,-5.924,-5.9241,-5.9241,-5.9177,-5.9174,-5.9172,-5.917,-5.9194,-5.9197,-5.92,0,0,0,0,0,0,0,0,0,0,0,0,0,-5.9142,-5.9105,-5.9213,-5.9185,-5.9183,-5.924,-5.9241,-5.9241,-5.9177,-5.9174,-5.9171,-5.9168,-5.9193,-5.9196,-5.92,-5.9285,0,0,-5.9212,-5.9213,0,0,0,0,0,0,0,0,-5.914,-5.9146,-5.9189,-5.9187,-5.9185,-5.9202,-5.921,-5.9256,-5.9178,-5.9179,-5.917,-5.9167,-5.9199,-5.9202,-5.9214,-5.9286,-5.9287,-5.9212,-5.9214,-5.9216,-5.9217,0,0,0,0,0,0,0,-5.9137,-5.9145,-5.9224,-5.919,-5.9187,-5.917,-5.9172,-5.9219,-5.9206,-5.9179,-5.9174,-5.9179,-5.9197,-5.921,-5.9214,-5.9287,-5.9212,-5.9215,-5.9218,-5.9219,-5.943,-5.9433,0,0,0,0,0,0,-5.9138,-5.9143,-5.9223,-5.9225,-5.9154,-5.9175,-5.9177,-5.92,-5.9205,-5.9203,-5.9181,-5.9176,-5.9205,-5.921,-5.9215,-5.9314,-5.9216,-5.922,-5.9222,-5.9426,-5.943,-5.9434,0,0,0,0,0,0,-5.9136,-5.9146,-5.9222,-5.9182,-5.9191,-5.918,-5.9205,-5.9202,-5.9215,-5.9207,-5.9204,-5.9197,-5.9203,-5.9209,-5.9268,-5.9314,-5.9221,-5.9225,-5.9423,-5.9428,-5.9432,-5.9514,0,0,0,0,0,0,-5.9133,-5.9146,-5.9179,-5.9184,-5.9193,-5.9276,-5.9208,-5.9204,-5.9222,-5.9215,-5.9221,-5.9219,-5.9201,-5.9263,-5.9272,-5.9318,-5.9228,-5.9418,-5.9425,-5.9431,-5.9508,-5.9522,-5.9534,0,0,0,0,0,-5.913,-5.92,-5.9181,-5.9191,-5.9234,-5.9279,-5.9284,-5.9263,-5.9226,-5.9258,-5.9253,-5.9219,-5.9308,-5.9269,-5.9279,-5.9327,-5.9415,-5.9423,-5.943,-5.9502,-5.9519,-5.9533,0,0,0,0,0,0,-5.9199,-5.92,-5.9179,-5.9253,-5.9267,-5.9268,-5.9308,-5.9282,-5.9305,-5.9298,-5.9269,-5.9271,-5.9335,-5.9336,-5.9294,-5.9409,-5.9355,-5.9365,-5.9406,-5.9422,-5.9435,-5.9433,-5.9231,0,0,0,0,0,-5.9223,-5.9261,-5.9259,-5.9324,-5.9333,-5.932,-5.9338,-5.9321,-5.9333,-5.9338,-5.9338,-5.935,-5.9381,-5.9401,-5.9429,-5.9507,-5.9508,-5.9545,-5.9558,-5.9569,-5.9577,-5.9619,-5.9636,-5.9458,-5.9458,-5.9458,0,0,-5.9273,-5.9278,-5.9303,-5.9339,-5.9347,-5.9386,-5.9325,-5.9368,-5.9396,-5.9344,-5.94,-5.94,-5.9412,-5.9481,-5.9512,-5.9484,-5.9627,-5.9578,-5.9587,-5.959,-5.9629,-5.9645,-5.966,-5.9464,-5.9463,-5.9462,0,0,-5.9384,-5.9392,-5.9447,-5.9458,-5.9472,-5.9463,-5.9476,-5.9482,-5.9481,-5.9537,-5.9499,-5.9531,-5.9584,-5.9594,-5.9607,-5.9722,-5.9691,-5.9731,-5.98,-5.9841,-5.9855,-5.9867,-5.9909,-5.9924,-5.974,-5.974,-5.9741,0,-5.9443,-5.9502,-5.9479,-5.9525,-5.9542,-5.9498,-5.9554,-5.9565,-5.9587,-5.9599,-5.9568,-5.9634,-5.9639,-5.971,-5.9739,-5.975,-5.9764,-5.9731,-5.9855,-5.9867,-5.9878,-5.9917,-5.9933,-5.9745,-5.9745,-5.9744,-5.9744,0,-5.9575,-5.9615,-5.9658,-5.9683,-5.9704,-5.9755,-5.9739,-5.9763,-5.9744,-5.9738,-5.9795,-5.9799,-5.9827,-5.9843,-5.9824,-5.9911,-5.9894,-5.986,-5.9805,-5.99,-5.9937,-5.9951,-5.9752,-5.975,-5.9749,-5.9748,0,0,-5.973,-5.9742,-5.9758,-5.9769,-5.9781,-5.9812,-5.986,-5.9889,-5.991,-5.9927,-5.9966,-6.0013,-5.9981,-5.9995,-5.9977,-6.0013,-6.0105,-5.9974,-5.9974,-5.9999,-6.0202,-6.0228,-6.0246,-6.0084,-6.0087,-6.0089,-6.0201,0,-5.984,-5.9925,-5.9906,-5.999,-6.0027,-5.9986,-6.0028,-6.004,-6.0036,-6.0066,-6.006,-6.0094,-6.0049,-6.0057,-6.0091,-6.0086,-6.0145,-6.0078,-6.012,-6.0122,-6.012,-6.0265,-6.0293,-6.0398,-6.0215,-6.0217,-6.0219,0,-5.998,-6.0004,-6.0091,-6.0099,-6.0114,-6.0152,-6.0177,-6.0207,-6.0219,-6.0213,-6.0229,-6.0204,-6.0251,-6.0196,-6.026,-6.0215,-6.0231,-6.0231,-6.0235,-6.0238,-6.0177,-6.0273,-6.0431,-6.0447,-6.0241,-6.0239,-6.0238,0,-6.0085,-6.0139,-6.0198,-6.0209,-6.0218,-6.0247,-6.0252,-6.0261,-6.028,-6.0301,-6.0313,-6.0339,-6.0354,-6.0374,-6.0356,-6.0317,-6.0423,-6.0366,-6.042,-6.042,-6.0444,-6.0443,-6.0608,-6.0454,-6.0453,-6.0453,-6.0453,0,-6.021,-6.0266,-6.0246,-6.0283,-6.0343,-6.0321,-6.0381,-6.0381,-6.039,-6.0425,-6.039,-6.0424,-6.0398,-6.0429,-6.0415,-6.0471,-6.0477,-6.0474,-6.047,-6.0477,-6.0478,-6.0488,-6.048,-6.0457,-6.0456,-6.0456,-6.0455,0,-6.0338,-6.0327,-6.039,-6.0395,-6.0397,-6.0442,-6.0445,-6.0478,-6.0472,-6.0517,-6.0526,-6.0515,-6.055,-6.0534,-6.057,-6.0561,-6.0632,-6.0618,-6.0629,-6.0626,-6.068,-6.0675,-6.0857,-6.088,-6.0711,-6.0712,-6.0714,0,-6.0419,-6.0461,-6.0471,-6.0493,-6.0501,-6.0537,-6.0556,-6.0535,-6.0556,-6.0574,-6.0605,-6.0637,-6.0662,-6.072,-6.0714,-6.0741,-6.0728,-6.079,-6.0732,-6.0738,-6.0729,-6.0728,-6.0732,-6.0801,-6.0803,-6.0805,-6.0806,0,-6.0564,-6.0557,-6.0587,-6.0616,-6.0641,-6.0662,-6.068,-6.0699,-6.0679,-6.0704,-6.074,-6.076,-6.0797,-6.083,-6.0854,-6.0857,-6.0829,-6.0825,-6.0839,-6.0847,-6.0852,-6.0851,-6.0661,-6.0821,-6.0819,-6.0818,-6.0817,-6.0817,-6.0672,-6.0707,-6.072,-6.0755,-6.0767,-6.0784,-6.0817,-6.0814,-6.0845,-6.0875,-6.086,-6.0902,-6.0913,-6.0943,-6.095,-6.0982,-6.0958,-6.0977,-6.0983,-6.0988,-6.0996,-6.0847,-6.0986,-6.0986,-6.0985,-6.0985,-6.0985,0,-6.0816,-6.0822,-6.0855,-6.0882,-6.0909,-6.0881,-6.0899,-6.0923,-6.0961,-6.0975,-6.1,-6.1042,-6.1073,-6.107,-6.1099,-6.1125,-6.1112,-6.1133,-6.1131,-6.1132,-6.1016,-6.1001,-6.1143,-6.1142,-6.1142,-6.1142,-6.1142,-6.1142,-6.0894,-6.0953,-6.0948,-6.1012,-6.1017,-6.106,-6.1073,-6.1088,-6.1099,-6.1148,-6.1174,-6.1172,-6.1179,-6.1208,-6.1235,-6.1233,-6.1246,-6.1271,-6.1265,-6.1156,-6.114,-6.1126,-6.1112,-6.1274,-6.1274,-6.1379,-6.138,-6.1381]}]]